Location: Sceptre
(50.8619°N, 109.2670°W)
Time: 00:46:09
(UTC+00:00)

CUTE 1.7 + AOD 2 - Pass Details

Date: 01 July 2022
Orbit: 589 x 608 km, 97.7° (Epoch: 07 August)

Event Time Altitude Azimuth Distance (km) Brightness Sun altitude
Rises 10:08:47 0° 26° (NNE) 2,856 ? -7.3°
Reaches altitude 10° 10:11:35 10° 46° (NE) 1,943 ? -7.1°
Maximum altitude 10:14:30 18° 90° (E) 1,479 ? -6.8°
Drops below altitude 10° 10:17:24 10° 134° (SE) 1,924 ? -6.5°
Sets 10:20:08 0° 154° (SSE) 2,816 ? -6.2°
